Location: Krakow
(50.0830°N, 19.9170°E)
Time: 08:03:08
(UTC+02:00)

A-11 Canister half - Pass Details

Date: 15 March 2026
Orbit: 1523 x 1684 km, 47.3° (Epoch: 18 April)

Event Time Altitude Azimuth Distance (km) Brightness Sun altitude
Rises 06:59:49 0° 178° (S) 4,894 11.9 9.5°
Reaches altitude 10° 07:04:44 10° 158° (SSE) 3,886 11.8 10.3°
Maximum altitude 07:09:54 16° 126° (SE) 3,423 12.6 11.1°
Drops below altitude 10° 07:15:00 10° 94° (E) 3,830 13.1 11.9°
Sets 07:19:44 0° 74° (ENE) 4,786 12.6 12.6°
